[[{"header":{"parameterUnit":"m.s-1","parameterCategory":2,"la1":30.2991,"la2":30.254,"lo1":-89.0895,"lo2":-89.0444,"dy":0.0017,"dx":0.0017,"nx":28,"ny":28,"refTime":"2024-02-17T03:00:00:Z","depth":"0","parameterNumber":2,"parameterNumberName":"U-component_of_CURRENTS"},"data":[0,0,0,0,0,0,0,0,0,0,0,0,0,0,0,0,0,0,0,0,0,0,0,0,0,0,0,0,0,0,0,0,0,0,0,0,0,0,0,0,0,0,0,0,0,0,0,0,0,0,0,0,0,0,0,0,0,0,0.2627,0.2628,0,0.2677,0.2677,0.2677,0.2705,0.2705,0.2705,0.2705,0.2798,0.28,0.2803,0,0,0,0,0,0,0,0,0,0,0,0,0,0.258,0.258,0.2627,0.2628,0.2629,0.2676,0.2677,0.2678,0.2704,0.2705,0.2705,0.2705,0.2797,0.28,0.2803,0,0,0,0,0,0,0,0,0,0,0,0,0,0.2611,0.2581,0.2627,0.2649,0.2651,0.2676,0.2677,0.2678,0.2704,0.2705,0.2705,0.2705,0.2797,0.28,0.2803,0.2819,0,0,0.2814,0.2815,0,0,0,0,0,0,0,0,0.2609,0.2612,0.2645,0.2647,0.265,0.2686,0.2695,0.2728,0.2704,0.2683,0.2705,0.2705,0.2765,0.2771,0.2778,0.2824,0.2828,0.2814,0.2816,0.2818,0.2819,0,0,0,0,0,0,0,0.2607,0.2611,0.2645,0.2646,0.2649,0.2664,0.2669,0.2701,0.2722,0.2685,0.2687,0.2695,0.2767,0.2774,0.278,0.2829,0.2814,0.2817,0.2819,0.2821,0.2953,0.2954,0,0,0,0,0,0,0.2602,0.2608,0.2644,0.2647,0.2631,0.2665,0.267,0.2673,0.2721,0.2728,0.2694,0.2696,0.2768,0.2776,0.2784,0.287,0.2818,0.2821,0.2823,0.2951,0.2953,0.2955,0,0,0,0,0,0,0.26,0.2604,0.2642,0.263,0.2636,0.2665,0.2669,0.2674,0.2686,0.2728,0.2736,0.2702,0.2769,0.2779,0.2813,0.2871,0.2823,0.2826,0.295,0.2952,0.2954,0.3002,0,0,0,0,0,0,0.2599,0.2603,0.2603,0.263,0.2637,0.2668,0.2669,0.2675,0.269,0.2693,0.2737,0.2745,0.277,0.2808,0.2817,0.2875,0.2828,0.2948,0.2951,0.2953,0.2998,0.3005,0.3011,0,0,0,0,0,0.2597,0.2617,0.2602,0.2607,0.2635,0.2669,0.2675,0.2695,0.269,0.2705,0.2724,0.2744,0.2833,0.2811,0.2821,0.2883,0.2947,0.295,0.2953,0.2996,0.3004,0.3011,0,0,0,0,0,0,0.2617,0.2622,0.2607,0.263,0.2645,0.2675,0.2696,0.2695,0.2719,0.2724,0.2749,0.2759,0.2817,0.2832,0.2808,0.2927,0.2899,0.2904,0.2928,0.2936,0.2943,0.306,0.2831,0,0,0,0,0,0.2611,0.2626,0.2626,0.2654,0.2653,0.2666,0.268,0.269,0.2715,0.2726,0.2751,0.2788,0.2838,0.2869,0.2905,0.2961,0.3053,0.301,0.3017,0.3022,0.3124,0.3255,0.3285,0.2965,0.2965,0.2965,0,0,0.2648,0.2639,0.266,0.2658,0.267,0.273,0.2676,0.2707,0.2775,0.2734,0.2819,0.2805,0.2853,0.2921,0.2951,0.2943,0.3156,0.3026,0.303,0.3132,0.3262,0.3294,0.3322,0.2967,0.2967,0.2967,0,0,0.2745,0.2694,0.2749,0.2759,0.2766,0.277,0.2777,0.2791,0.2804,0.2846,0.2855,0.289,0.2927,0.3006,0.3044,0.3113,0.3177,0.3091,0.3236,0.3358,0.3388,0.3415,0.3558,0.3597,0.3104,0.3104,0.3104,0,0.2804,0.2841,0.2775,0.2833,0.2875,0.2798,0.2894,0.2897,0.2926,0.2963,0.2884,0.2996,0.3002,0.3164,0.3181,0.3142,0.3216,0.3195,0.3373,0.3401,0.3428,0.3569,0.3612,0.3107,0.3107,0.3106,0.3106,0,0.2948,0.2977,0.301,0.3059,0.3087,0.3141,0.3137,0.3157,0.3121,0.3131,0.321,0.3192,0.3286,0.3257,0.3244,0.3441,0.3432,0.3353,0.3361,0.3465,0.3604,0.3648,0.3111,0.311,0.3109,0.3108,0,0,0.3147,0.3118,0.3145,0.3178,0.3205,0.3247,0.3343,0.3412,0.3497,0.3448,0.3582,0.3602,0.356,0.3607,0.3571,0.3663,0.3872,0.3597,0.3602,0.3759,0.4174,0.407,0.4108,0.3802,0.381,0.3816,0.4189,0,0.3306,0.3397,0.3379,0.3526,0.3573,0.3553,0.3658,0.3704,0.3696,0.3783,0.3753,0.3837,0.37,0.3733,0.3808,0.3847,0.3994,0.3782,0.404,0.4051,0.396,0.4158,0.3929,0.4234,0.4233,0.424,0.4246,0,0.3521,0.3513,0.364,0.371,0.3744,0.3832,0.3965,0.4048,0.4131,0.413,0.4185,0.4146,0.4284,0.412,0.4328,0.4185,0.4246,0.4257,0.4269,0.4215,0.4032,0.4133,0.4315,0.4149,0.4314,0.4309,0.4304,0,0.3692,0.3756,0.3831,0.3859,0.3908,0.3994,0.4054,0.4154,0.4229,0.4365,0.4418,0.4524,0.4575,0.4657,0.4625,0.4518,0.4839,0.4686,0.4687,0.468,0.4573,0.4542,0.4655,0.4946,0.4946,0.4944,0.4943,0,0.3906,0.3991,0.3887,0.3945,0.4065,0.4092,0.4269,0.4348,0.4464,0.457,0.4597,0.4694,0.4707,0.4815,0.4804,0.4887,0.4998,0.483,0.4805,0.4574,0.454,0.4455,0.4351,0.4958,0.4955,0.4953,0.495,0,0.4144,0.4073,0.4155,0.4148,0.415,0.425,0.4354,0.4456,0.4571,0.4723,0.4776,0.4889,0.5021,0.5042,0.5198,0.5113,0.5056,0.522,0.4952,0.4888,0.466,0.4566,0.4644,0.4521,0.5324,0.5324,0.5324,0,0.4284,0.4318,0.4286,0.4281,0.4279,0.4362,0.4414,0.4512,0.459,0.4806,0.4876,0.5067,0.5148,0.5341,0.5271,0.5344,0.5127,0.5173,0.4933,0.473,0.4609,0.4414,0.4289,0.4821,0.4817,0.4814,0.4811,0,0.4491,0.4454,0.4448,0.4426,0.4439,0.4485,0.4547,0.4606,0.4716,0.4824,0.4974,0.508,0.5244,0.5173,0.5243,0.5223,0.4879,0.5107,0.498,0.4351,0.4075,0.391,0.4506,0.4782,0.4785,0.4787,0.4789,0.479,0.4596,0.4612,0.4533,0.4537,0.4541,0.4548,0.4561,0.4597,0.4682,0.4757,0.493,0.5006,0.499,0.503,0.4989,0.472,0.4743,0.4536,0.4492,0.4356,0.4073,0.4624,0.4779,0.4781,0.4784,0.4786,0.4788,0,0.4625,0.4604,0.4629,0.4569,0.4568,0.4569,0.4581,0.4525,0.452,0.4656,0.4732,0.4663,0.4583,0.4517,0.4278,0.4108,0.3923,0.399,0.3664,0.361,0.4199,0.4001,0.3888,0.3888,0.3889,0.3889,0.3889,0.3889,0.4612,0.4587,0.4583,0.4537,0.4516,0.4424,0.4391,0.4315,0.4344,0.4247,0.4191,0.4209,0.4109,0.3949,0.3674,0.3584,0.33,0.3179,0.3214,0.3583,0.3628,0.3671,0.3463,0.3239,0.3238,0.2462,0.2456,0.2451]},{"header":{"parameterUnit":"m.s-1","parameterCategory":2,"la1":30.2991,"la2":30.254,"lo1":-89.0895,"lo2":-89.0444,"dy":0.0017,"dx":0.0017,"nx":28,"ny":28,"refTime":"2024-02-17T03:00:00:Z","depth":"0","parameterNumber":3,"parameterNumberName":"V-component_of_CURRENTS"},"data":[0,0,0,0,0,0,0,0,0,0,0,0,0,0,0,0,0,0,0,0,0,0,0,0,0,0,0,0,0,0,0,0,0,0,0,0,0,0,0,0,0,0,0,0,0,0,0,0,0,0,0,0,0,0,0,0,0,0,0.0126,0.0126,0,0.0051,0.005,0.0048,-0.0008,-0.0009,-0.0009,-0.0009,-0.0104,-0.0106,-0.0108,0,0,0,0,0,0,0,0,0,0,0,0,0,0.0161,0.0161,0.0127,0.0126,0.0125,0.0051,0.0049,0.0048,-0.0008,-0.0009,-0.0009,-0.0009,-0.0103,-0.0106,-0.0109,0,0,0,0,0,0,0,0,0,0,0,0,0,0.012,0.0161,0.0127,0.009,0.0086,0.0051,0.0049,0.0048,-0.0008,-0.0009,-0.0009,-0.001,-0.0102,-0.0106,-0.0109,-0.0121,0,0,-0.0119,-0.0121,0,0,0,0,0,0,0,0,0.0122,0.0118,0.0096,0.0092,0.0088,0.0032,0.0027,-0.0009,-0.0008,0.0025,-0.0009,-0.001,-0.0058,-0.0065,-0.0082,-0.0125,-0.0129,-0.012,-0.0122,-0.0123,-0.0124,0,0,0,0,0,0,0,0.0125,0.0121,0.0094,0.0095,0.009,0.0056,0.005,0.0019,-0.0015,0.0022,0.0018,0.0014,-0.0061,-0.0078,-0.0084,-0.0131,-0.0119,-0.0122,-0.0125,-0.0126,-0.0177,-0.0176,0,0,0,0,0,0,0.0143,0.0124,0.0097,0.0092,0.0107,0.0056,0.0049,0.0049,-0.0015,-0.0024,0.0014,0.0011,-0.0072,-0.008,-0.0088,-0.0082,-0.0123,-0.0126,-0.0128,-0.0177,-0.0177,-0.0176,0,0,0,0,0,0,0.0144,0.0141,0.01,0.0108,0.01,0.0057,0.0056,0.0047,0.0034,-0.002,-0.003,0.0011,-0.0073,-0.0083,-0.0104,-0.0087,-0.0128,-0.0131,-0.0178,-0.0177,-0.0176,-0.0085,0,0,0,0,0,0,0.0145,0.0142,0.0147,0.0109,0.0101,0.0091,0.0056,0.0046,0.0033,0.0029,-0.0026,-0.0036,-0.0074,-0.0099,-0.0108,-0.0092,-0.0133,-0.0179,-0.0178,-0.0176,-0.0089,-0.0081,-0.0074,0,0,0,0,0,0.0147,0.0162,0.0148,0.0145,0.011,0.0092,0.0085,0.005,0.0034,0.0035,-0.0001,-0.0034,-0.0097,-0.0101,-0.0111,-0.0096,-0.018,-0.0178,-0.0177,-0.0092,-0.0082,-0.0074,0,0,0,0,0,0,0.0181,0.0157,0.0141,0.0148,0.0126,0.0084,0.0082,0.0059,0.003,0.0027,-0.0026,-0.0038,-0.0053,-0.0086,-0.0088,-0.0108,-0.0143,-0.0144,-0.0076,-0.0067,-0.006,-0.0012,-0.0136,0,0,0,0,0,0.0192,0.0196,0.0166,0.0171,0.0165,0.0125,0.0113,0.0092,0.0062,0.0049,0.0011,-0.0027,-0.0055,-0.0069,-0.0103,-0.011,-0.0101,-0.0108,-0.0101,-0.0094,-0.0062,-0.0046,-0.0034,-0.0171,-0.0171,-0.0171,0,0,0.0207,0.0194,0.0196,0.0178,0.0157,0.0165,0.0117,0.0109,0.0116,0.0044,0.004,-0.0005,-0.0053,-0.0064,-0.0073,-0.0087,-0.0047,-0.0092,-0.0086,-0.0057,-0.0043,-0.003,-0.0017,-0.017,-0.017,-0.017,0,0,0.0249,0.0229,0.0251,0.0239,0.0219,0.0196,0.02,0.0164,0.0149,0.0135,0.0089,0.0066,0.0013,-0.0007,-0.0026,0.0004,-0.0013,-0.0019,0.0062,0.0077,0.0089,0.01,0.0151,0.0165,-0.001,-0.001,-0.001,0,0.0271,0.0295,0.0254,0.0273,0.0281,0.0219,0.0254,0.0224,0.0186,0.0191,0.0148,0.0101,0.0047,0.0061,0.0062,0.0024,0.0041,0.0033,0.009,0.01,0.011,0.0159,0.0174,-0.0006,-0.0006,-0.0007,-0.0007,0,0.033,0.035,0.0363,0.037,0.0368,0.0385,0.035,0.0343,0.031,0.0285,0.0281,0.0212,0.0195,0.0162,0.0115,0.0157,0.0152,0.0095,0.0075,0.013,0.0178,0.0192,0.0001,-0.0001,-0.0002,-0.0003,0,0,0.039,0.0406,0.0413,0.044,0.0429,0.0435,0.045,0.0456,0.0481,0.0422,0.0464,0.0391,0.0356,0.0334,0.0275,0.0277,0.0343,0.0222,0.0221,0.0289,0.0414,0.0375,0.0386,0.0294,0.0297,0.0299,0.043,0,0.0459,0.0517,0.0513,0.0577,0.0608,0.0578,0.0604,0.0595,0.0569,0.0582,0.0521,0.0521,0.042,0.0419,0.0405,0.0348,0.0381,0.0316,0.0338,0.0341,0.031,0.04,0.0374,0.0485,0.0443,0.0445,0.0447,0,0.0536,0.0562,0.0635,0.0693,0.0708,0.0734,0.0777,0.0793,0.0786,0.0771,0.0759,0.0705,0.07,0.06,0.058,0.0543,0.0507,0.0463,0.0466,0.0411,0.0326,0.0417,0.0512,0.0295,0.0468,0.0467,0.0465,0,0.0601,0.0664,0.0726,0.074,0.0778,0.0818,0.0843,0.0851,0.0872,0.0899,0.0923,0.0893,0.0899,0.0832,0.0728,0.0665,0.072,0.0615,0.0568,0.0566,0.0542,0.0533,0.0444,0.0649,0.0649,0.0648,0.0648,0,0.0687,0.0743,0.0757,0.0788,0.0865,0.0884,0.0961,0.098,0.1015,0.1066,0.1026,0.1083,0.0956,0.0948,0.0829,0.0761,0.0807,0.0628,0.0604,0.0573,0.0565,0.037,0.0245,0.0653,0.0652,0.0651,0.065,0,0.0758,0.0768,0.0832,0.0876,0.0893,0.0944,0.1009,0.1055,0.1105,0.1179,0.1201,0.1241,0.1268,0.1155,0.1087,0.0914,0.0724,0.0809,0.08,0.077,0.0455,0.0337,0.0293,0.0201,0.0766,0.0766,0.0766,0,0.0799,0.0839,0.0875,0.0888,0.091,0.0974,0.1014,0.1076,0.1131,0.128,0.1332,0.142,0.1513,0.1423,0.1183,0.1036,0.0819,0.0842,0.069,0.0475,0.0327,0.0252,0.0172,0.0716,0.0715,0.0715,0.0714,0,0.0861,0.0866,0.0892,0.0919,0.0952,0.102,0.1098,0.1157,0.1259,0.1385,0.1586,0.1704,0.1666,0.1545,0.1315,0.1146,0.0658,0.0825,0.0605,0.03,0.0215,0.0101,0.0609,0.0711,0.0711,0.0711,0.0712,0.0712,0.0875,0.0891,0.0898,0.0937,0.0983,0.1073,0.1159,0.128,0.1442,0.1695,0.1782,0.2074,0.1815,0.1541,0.1249,0.0668,0.0688,0.0439,0.0332,0.0291,0.0137,0.0651,0.0698,0.0698,0.0698,0.0699,0.0699,0,0.0856,0.0875,0.0911,0.0957,0.1031,0.1063,0.1214,0.1349,0.159,0.1908,0.2151,0.2285,0.1884,0.1453,0.0676,0.0234,0.0074,-0.0009,-0.0142,-0.0191,0.0278,0.0202,0.0139,0.0139,0.0139,0.0139,0.0139,0.014,0.0829,0.0841,0.0869,0.0973,0.1038,0.1181,0.1289,0.1534,0.1813,0.2276,0.2584,0.2788,0.2452,0.0964,-0.0043,-0.0268,-0.0564,-0.0607,-0.0741,-0.0478,-0.0446,-0.0415,-0.0518,-0.0731,-0.0732,-0.1173,-0.1178,-0.1181]}],[{"header":{"parameterUnit":"m.s-1","parameterCategory":2,"la1":30.2991,"la2":30.254,"lo1":-89.0895,"lo2":-89.0444,"dy":0.0017,"dx":0.0017,"nx":28,"ny":28,"refTime":"2024-02-17T03:00:00:Z","depth":"2","parameterNumber":2,"parameterNumberName":"U-component_of_CURRENTS"},"data":[0,0,0,0,0,0,0,0,0,0,0,0,0,0,0,0,0,0,0,0,0,0,0,0,0,0,0,0,0,0,0,0,0,0,0,0,0,0,0,0,0,0,0,0,0,0,0,0,0,0,0,0,0,0,0,0,0,0,0.212,0.2121,0,0.2159,0.2159,0.2159,0.2172,0.2172,0.2172,0.2172,0.2197,0.2198,0.2198,0,0,0,0,0,0,0,0,0,0,0,0,0,0.2068,0.2069,0.212,0.2121,0.2122,0.2159,0.2159,0.2159,0.2172,0.2172,0.2172,0.2172,0.2197,0.2198,0.2198,0,0,0,0,0,0,0,0,0,0,0,0,0,0.2095,0.2069,0.212,0.2133,0.2135,0.2159,0.2159,0.2159,0.2172,0.2172,0.2172,0.2172,0.2196,0.2197,0.2198,0.2205,0,0,0.2202,0.2202,0,0,0,0,0,0,0,0,0.2094,0.2097,0.2131,0.2133,0.2135,0.2162,0.215,0.2175,0.2172,0.2156,0.2172,0.2172,0.2185,0.2187,0.2192,0.2206,0.2207,0.2202,0.2202,0.2203,0.2203,0,0,0,0,0,0,0,0.2092,0.2095,0.2134,0.2132,0.2134,0.2141,0.2145,0.2155,0.2169,0.2157,0.2159,0.2166,0.2186,0.2191,0.2193,0.2208,0.2202,0.2203,0.2203,0.2204,0.2283,0.2284,0,0,0,0,0,0,0.209,0.2094,0.2132,0.2135,0.2116,0.2142,0.2146,0.2152,0.2169,0.2172,0.2166,0.2166,0.2189,0.2192,0.2194,0.2245,0.2203,0.2204,0.2204,0.2281,0.2283,0.2285,0,0,0,0,0,0,0.2089,0.2093,0.2131,0.2117,0.2122,0.2143,0.2149,0.2153,0.2168,0.2176,0.2178,0.2179,0.2189,0.2192,0.2218,0.2245,0.2204,0.2205,0.228,0.2282,0.2284,0.2321,0,0,0,0,0,0,0.2087,0.2092,0.2098,0.2117,0.2123,0.2154,0.215,0.2153,0.2172,0.2174,0.2188,0.219,0.219,0.2216,0.2219,0.2245,0.2206,0.2278,0.2281,0.2283,0.2318,0.2324,0.233,0,0,0,0,0,0.2085,0.2094,0.2098,0.2103,0.2129,0.2155,0.2159,0.2172,0.2173,0.2185,0.2197,0.219,0.2236,0.2218,0.2221,0.2248,0.2276,0.228,0.2283,0.2315,0.2323,0.2329,0,0,0,0,0,0,0.2073,0.2097,0.2101,0.2117,0.2138,0.2158,0.2172,0.2179,0.2198,0.2201,0.2204,0.2207,0.2239,0.2241,0.2221,0.2281,0.2257,0.2261,0.2281,0.2288,0.2294,0.2325,0.2207,0,0,0,0,0,0.2073,0.2088,0.211,0.2124,0.2136,0.2155,0.2168,0.2179,0.2197,0.2205,0.2215,0.2233,0.2254,0.2268,0.2282,0.2312,0.2352,0.2335,0.2341,0.2345,0.2374,0.246,0.2477,0.2296,0.2296,0.2296,0,0,0.2072,0.2088,0.2096,0.2123,0.214,0.2171,0.2163,0.2189,0.2219,0.2205,0.2245,0.2249,0.2266,0.2301,0.2317,0.2307,0.2416,0.235,0.2354,0.238,0.2466,0.2484,0.25,0.2298,0.2298,0.2297,0,0,0.2088,0.2093,0.2118,0.2134,0.2166,0.2184,0.2195,0.2221,0.2238,0.2267,0.2275,0.2303,0.2321,0.2353,0.2367,0.2417,0.244,0.2415,0.2475,0.2557,0.2574,0.2588,0.2652,0.2672,0.2423,0.2423,0.2423,0,0.2094,0.2121,0.2129,0.2156,0.2179,0.2195,0.2231,0.2252,0.2283,0.2314,0.2285,0.235,0.2353,0.2426,0.2443,0.2433,0.248,0.2442,0.2567,0.2582,0.2597,0.2659,0.268,0.2425,0.2425,0.2424,0.2424,0,0.2129,0.215,0.2166,0.2211,0.2235,0.2266,0.2298,0.233,0.2344,0.2369,0.2427,0.243,0.2483,0.2476,0.2473,0.258,0.2579,0.2559,0.2549,0.2617,0.2678,0.27,0.2428,0.2427,0.2427,0.2426,0,0,0.2164,0.2188,0.2205,0.2217,0.2266,0.2289,0.2351,0.2419,0.247,0.2485,0.2559,0.2583,0.2597,0.2617,0.2617,0.2675,0.2799,0.2667,0.2671,0.2732,0.2986,0.2896,0.2911,0.2806,0.281,0.2814,0.2984,0,0.2204,0.2251,0.2267,0.2321,0.234,0.2375,0.2424,0.2482,0.2529,0.26,0.2628,0.2688,0.2648,0.2678,0.2736,0.2789,0.2862,0.2755,0.2911,0.2916,0.2829,0.2935,0.2674,0.2797,0.3006,0.3009,0.3012,0,0.2244,0.2269,0.2326,0.2354,0.2373,0.2418,0.2514,0.2558,0.2663,0.2699,0.2779,0.2806,0.2912,0.2851,0.3004,0.2942,0.2987,0.3007,0.3014,0.2939,0.2868,0.2766,0.283,0.3049,0.3046,0.3043,0.3041,0,0.2246,0.2308,0.2355,0.2368,0.2416,0.2466,0.2508,0.2602,0.2638,0.2792,0.2829,0.2961,0.302,0.3107,0.3153,0.3108,0.3302,0.3244,0.3206,0.3199,0.3014,0.2984,0.3374,0.3374,0.3374,0.3373,0.3373,0,0.2253,0.2274,0.2364,0.2375,0.2426,0.2474,0.2544,0.2609,0.2712,0.2767,0.2882,0.2942,0.309,0.3194,0.3231,0.3295,0.3382,0.3257,0.3255,0.3016,0.2985,0.3225,0.3205,0.338,0.3378,0.3377,0.3376,0,0.2184,0.225,0.2283,0.2379,0.2409,0.244,0.2512,0.2549,0.2673,0.2758,0.2811,0.298,0.3141,0.3252,0.3419,0.3381,0.3457,0.3454,0.3156,0.3116,0.328,0.326,0.3452,0.345,0.3449,0.3448,0.3447,0,0.2113,0.2159,0.2267,0.2279,0.2313,0.2372,0.2392,0.2513,0.2567,0.275,0.2784,0.2991,0.3089,0.3294,0.334,0.3439,0.3488,0.3213,0.3071,0.3318,0.3298,0.3279,0.3262,0.2844,0.2838,0.2833,0.2829,0,0.2,0.2087,0.211,0.2177,0.2212,0.2235,0.2305,0.233,0.2487,0.2577,0.2728,0.2832,0.3042,0.3051,0.3175,0.317,0.3177,0.3119,0.3504,0.2847,0.2754,0.273,0.2731,0.2788,0.2792,0.2795,0.2797,0.2799,0.1897,0.1918,0.2018,0.204,0.2076,0.2099,0.2093,0.219,0.2266,0.238,0.2559,0.2644,0.2768,0.2835,0.2796,0.2785,0.2993,0.2851,0.2862,0.2879,0.2761,0.2669,0.2666,0.2669,0.2672,0.2674,0.2676,0,0.1803,0.1851,0.1869,0.1924,0.1907,0.2002,0.2026,0.1986,0.2037,0.2201,0.2319,0.2207,0.2254,0.239,0.2315,0.2327,0.2261,0.2229,0.2128,0.2173,0.2212,0.2055,0.1775,0.1772,0.1769,0.1766,0,0,0.1763,0.1751,0.1779,0.1745,0.1794,0.1743,0.1731,0.1729,0.1781,0.1786,0.1877,0.2107,0.2285,0.1985,0.1974,0.1862,0.1978,0.1777,0.2507,0.2431,0.2465,0.2593,0.2406,0,0,0,0,0]},{"header":{"parameterUnit":"m.s-1","parameterCategory":2,"la1":30.2991,"la2":30.254,"lo1":-89.0895,"lo2":-89.0444,"dy":0.0017,"dx":0.0017,"nx":28,"ny":28,"refTime":"2024-02-17T03:00:00:Z","depth":"2","parameterNumber":3,"parameterNumberName":"V-component_of_CURRENTS"},"data":[0,0,0,0,0,0,0,0,0,0,0,0,0,0,0,0,0,0,0,0,0,0,0,0,0,0,0,0,0,0,0,0,0,0,0,0,0,0,0,0,0,0,0,0,0,0,0,0,0,0,0,0,0,0,0,0,0,0,0.0138,0.0137,0,0.0073,0.0072,0.0071,0.0025,0.0025,0.0025,0.0024,-0.0045,-0.0047,-0.0049,0,0,0,0,0,0,0,0,0,0,0,0,0,0.0173,0.0173,0.0138,0.0137,0.0137,0.0073,0.0072,0.0071,0.0025,0.0025,0.0025,0.0024,-0.0045,-0.0047,-0.0049,0,0,0,0,0,0,0,0,0,0,0,0,0,0.0136,0.0172,0.0138,0.0107,0.0104,0.0073,0.0072,0.007,0.0025,0.0025,0.0024,0.0024,-0.0044,-0.0047,-0.0049,-0.0058,0,0,-0.0057,-0.0058,0,0,0,0,0,0,0,0,0.0138,0.0135,0.0113,0.0109,0.0106,0.0058,0.0058,0.0028,0.0025,0.0053,0.0024,0.0024,-0.001,-0.0015,-0.0029,-0.0061,-0.0064,-0.0057,-0.0058,-0.0059,-0.006,0,0,0,0,0,0,0,0.0141,0.0137,0.011,0.0112,0.0108,0.008,0.0074,0.0052,0.0023,0.0051,0.0048,0.0043,-0.0012,-0.0027,-0.0031,-0.0065,-0.0057,-0.0059,-0.006,-0.0061,-0.0097,-0.0096,0,0,0,0,0,0,0.0155,0.014,0.0113,0.0109,0.0123,0.008,0.0074,0.0072,0.0023,0.0016,0.0044,0.0041,-0.0022,-0.0028,-0.0034,-0.0032,-0.0059,-0.0062,-0.0063,-0.0097,-0.0096,-0.0096,0,0,0,0,0,0,0.0156,0.0154,0.0115,0.0124,0.0117,0.008,0.0078,0.0071,0.006,0.0018,0.001,0.004,-0.0023,-0.003,-0.0047,-0.0035,-0.0063,-0.0065,-0.0098,-0.0097,-0.0096,-0.0038,0,0,0,0,0,0,0.0158,0.0155,0.0158,0.0125,0.0117,0.0106,0.0079,0.007,0.0058,0.0055,0.0013,0.0005,-0.0023,-0.0043,-0.005,-0.0039,-0.0067,-0.0098,-0.0097,-0.0096,-0.004,-0.0035,-0.0031,0,0,0,0,0,0.0159,0.0169,0.0159,0.0156,0.0124,0.0107,0.01,0.0071,0.0059,0.0058,0.003,0.0007,-0.0041,-0.0045,-0.0052,-0.0042,-0.0099,-0.0098,-0.0096,-0.0043,-0.0036,-0.0031,0,0,0,0,0,0,0.0183,0.0164,0.0153,0.0155,0.0137,0.01,0.0097,0.0078,0.0054,0.0052,0.0011,0.0002,-0.0009,-0.0032,-0.0035,-0.0049,-0.0073,-0.0073,-0.0029,-0.0023,-0.0018,-0.0003,-0.0069,0,0,0,0,0,0.0192,0.0195,0.017,0.0172,0.0166,0.0133,0.0123,0.0105,0.008,0.0069,0.004,0.0012,-0.001,-0.0021,-0.0045,-0.0052,-0.0074,-0.005,-0.0045,-0.0041,-0.0033,-0.0056,-0.0053,-0.0092,-0.0092,-0.0092,0,0,0.02,0.0191,0.0192,0.0178,0.016,0.0159,0.0126,0.0118,0.0117,0.0066,0.0057,0.0027,-0.0009,-0.0019,-0.0025,-0.0035,-0.0041,-0.0039,-0.0035,-0.003,-0.0054,-0.0051,-0.0047,-0.0091,-0.0091,-0.0091,0,0,0.0223,0.0214,0.0225,0.0217,0.0201,0.0182,0.0185,0.0155,0.0142,0.0129,0.0094,0.0074,0.0038,0.0017,0.0001,0.0021,-0.0015,0.0013,0.0051,0.0029,0.0032,0.0035,0.0014,0.0014,0.0018,0.0018,0.0018,0,0.0233,0.0247,0.0225,0.0234,0.0235,0.0198,0.0212,0.0193,0.0162,0.0156,0.0136,0.0086,0.0056,0.0045,0.0051,0.0033,0.0013,0.0032,0.0036,0.0038,0.0039,0.0017,0.0017,0.0021,0.002,0.002,0.002,0,0.0261,0.0275,0.0283,0.0285,0.0281,0.0288,0.0265,0.0258,0.0237,0.0215,0.0196,0.0151,0.0123,0.011,0.0085,0.0084,0.0065,0.0044,0.0022,0.0047,0.0022,0.002,0.0025,0.0024,0.0023,0.0022,0,0,0.0272,0.03,0.0302,0.0325,0.0313,0.0317,0.0318,0.031,0.0318,0.0276,0.0278,0.0233,0.0204,0.0185,0.0149,0.0129,0.0122,0.0098,0.0095,0.008,0.0074,0.0039,0.0033,0.01,0.01,0.01,0.0053,0,0.0301,0.0348,0.0344,0.0385,0.041,0.0387,0.0395,0.0382,0.0361,0.0352,0.0299,0.0287,0.0234,0.0228,0.0196,0.0144,0.012,0.0137,0.005,0.0047,0.0016,0.0031,0.0056,0.0014,0.0051,0.0051,0.0051,0,0.0325,0.036,0.0413,0.0458,0.0464,0.0482,0.0496,0.0499,0.0471,0.0455,0.0419,0.0372,0.0336,0.0289,0.0204,0.0216,0.0154,0.0105,0.0102,0.0049,0.0009,-0.0005,0.0009,0.0047,0.0048,0.0048,0.0048,0,0.0356,0.0406,0.0459,0.0472,0.0508,0.0531,0.0547,0.0535,0.0557,0.0526,0.0533,0.0458,0.0444,0.0347,0.0241,0.0225,0.0146,0.0108,0.0014,0.001,0.0004,0.0,0.0048,0.0048,0.0049,0.0049,0.0049,0,0.0391,0.0433,0.0487,0.0518,0.0585,0.0588,0.0648,0.0641,0.0655,0.0706,0.0599,0.0623,0.0461,0.0389,0.0272,0.0144,0.0167,0.0025,-0.0003,0.0025,0.0023,0.0028,0.0027,0.0047,0.0047,0.0048,0.0048,0,0.0419,0.0449,0.0519,0.0582,0.0606,0.0656,0.0734,0.0781,0.0772,0.0835,0.0835,0.0758,0.0665,0.0489,0.0343,0.0203,0.0073,0.0021,0.0062,0.004,-0.006,-0.0058,-0.0099,-0.01,-0.0102,-0.0103,-0.0104,0,0.0447,0.0485,0.0571,0.0627,0.0665,0.0744,0.0808,0.0838,0.0908,0.0941,0.0991,0.0903,0.0871,0.0607,0.0351,0.0114,0.0086,-0.0035,-0.0073,-0.0051,-0.0074,-0.007,-0.0067,-0.0056,-0.0056,-0.0057,-0.0057,0,0.0502,0.0524,0.0585,0.0699,0.0785,0.089,0.0995,0.1072,0.1131,0.118,0.1259,0.123,0.0958,0.0716,0.0349,0.0184,-0.0006,-0.0053,-0.0028,-0.0027,-0.0016,-0.0037,-0.0034,-0.006,-0.006,-0.006,-0.006,-0.0059,0.0554,0.0594,0.0676,0.0788,0.0892,0.1049,0.1167,0.128,0.1412,0.1511,0.1467,0.141,0.1092,0.0623,0.0324,-0.0016,-0.0008,-0.0134,-0.0131,-0.0127,-0.0118,-0.0111,-0.0171,-0.0171,-0.0172,-0.0172,-0.0172,0,0.0617,0.0662,0.0765,0.0914,0.1056,0.1097,0.1301,0.142,0.1601,0.1648,0.1686,0.1365,0.1058,0.0696,0.0201,-0.01,-0.0121,-0.0203,-0.0151,-0.0146,-0.0142,-0.0133,-0.019,-0.0191,-0.0192,-0.0192,0,0,0.065,0.0748,0.0792,0.1034,0.115,0.1368,0.1504,0.165,0.1734,0.1782,0.1727,0.1606,0.116,0.0798,0.0391,0.0114,0.0055,0.0048,0.0094,0.0209,0.0217,-0.0077,-0.0054,0,0,0,0,0]}],[{"header":{"parameterUnit":"m.s-1","parameterCategory":2,"la1":30.2991,"la2":30.254,"lo1":-89.0895,"lo2":-89.0444,"dy":0.0017,"dx":0.0017,"nx":28,"ny":28,"refTime":"2024-02-17T03:00:00:Z","depth":"4","parameterNumber":2,"parameterNumberName":"U-component_of_CURRENTS"},"data":[0,0,0,0,0,0,0,0,0,0,0,0,0,0,0,0,0,0,0,0,0,0,0,0,0,0,0,0,0,0,0,0,0,0,0,0,0,0,0,0,0,0,0,0,0,0,0,0,0,0,0,0,0,0,0,0,0,0,0.1398,0.1399,0,0.1455,0.1456,0.1457,0.1504,0.1504,0.1505,0.1505,0.1556,0.1557,0.1558,0,0,0,0,0,0,0,0,0,0,0,0,0,0.1321,0.1322,0.1398,0.1399,0.1399,0.1455,0.1456,0.1457,0.1503,0.1504,0.1505,0.1506,0.1556,0.1557,0.1558,0,0,0,0,0,0,0,0,0,0,0,0,0,0.1363,0.1323,0.1398,0.1431,0.1435,0.1455,0.1456,0.1457,0.1503,0.1504,0.1505,0.1506,0.1556,0.1557,0.1558,0.1545,0,0,0.1561,0.1562,0,0,0,0,0,0,0,0,0.136,0.1365,0.1425,0.1429,0.1433,0.1475,0.1448,0.1487,0.1503,0.1475,0.1505,0.1507,0.1529,0.1532,0.1538,0.1547,0.155,0.1561,0.1562,0.1562,0.1563,0,0,0,0,0,0,0,0.1357,0.1363,0.1419,0.1426,0.1431,0.1441,0.1448,0.1455,0.1494,0.1478,0.1482,0.1491,0.1531,0.1537,0.154,0.155,0.1561,0.1562,0.1563,0.1563,0.1642,0.1643,0,0,0,0,0,0,0.1353,0.136,0.1417,0.1421,0.14,0.1442,0.1449,0.1459,0.1495,0.1501,0.149,0.1493,0.1535,0.1539,0.1542,0.1611,0.1562,0.1563,0.1564,0.164,0.1642,0.1644,0,0,0,0,0,0,0.1351,0.1358,0.1415,0.1393,0.1401,0.1442,0.1453,0.146,0.1498,0.1504,0.1511,0.1525,0.1536,0.154,0.1582,0.161,0.1564,0.1565,0.1639,0.1641,0.1643,0.1696,0,0,0,0,0,0,0.1349,0.1357,0.1377,0.1393,0.1403,0.1447,0.1452,0.146,0.1501,0.1506,0.1536,0.154,0.1537,0.158,0.1583,0.1611,0.1566,0.1637,0.164,0.1642,0.1692,0.1699,0.1706,0,0,0,0,0,0.1346,0.1363,0.1377,0.1385,0.1424,0.1448,0.1454,0.1484,0.1502,0.1522,0.1549,0.1541,0.1599,0.1582,0.1585,0.1614,0.1636,0.1639,0.1642,0.1689,0.1698,0.1706,0,0,0,0,0,0,0.1339,0.137,0.1386,0.1412,0.1439,0.1457,0.1483,0.1502,0.1538,0.1554,0.1558,0.1564,0.1611,0.1606,0.1587,0.1645,0.1616,0.162,0.1651,0.1659,0.1666,0.1676,0.1567,0,0,0,0,0,0.1346,0.137,0.1397,0.1421,0.1438,0.1467,0.1487,0.1509,0.1536,0.1555,0.1575,0.1599,0.162,0.1636,0.1652,0.1681,0.1689,0.1702,0.1709,0.1714,0.1725,0.1765,0.1777,0.1654,0.1654,0.1654,0,0,0.1349,0.1371,0.1386,0.1423,0.1448,0.1474,0.1482,0.1522,0.1552,0.1552,0.1609,0.1626,0.1635,0.1673,0.1693,0.1675,0.1754,0.1718,0.1723,0.1731,0.177,0.1782,0.1792,0.1656,0.1656,0.1656,0,0,0.1356,0.139,0.1411,0.1437,0.1482,0.15,0.1519,0.1557,0.1589,0.1634,0.1648,0.1688,0.1714,0.1732,0.174,0.1793,0.179,0.1799,0.184,0.1878,0.1888,0.1898,0.1924,0.1935,0.1799,0.1799,0.18,0,0.1363,0.1391,0.1421,0.1447,0.1475,0.1515,0.1543,0.1576,0.1626,0.1654,0.1661,0.1729,0.1741,0.1787,0.1813,0.1809,0.1828,0.1806,0.1887,0.1896,0.1905,0.1929,0.1941,0.1802,0.1802,0.1802,0.1801,0,0.1378,0.1412,0.1429,0.1476,0.1507,0.1543,0.1587,0.1633,0.1674,0.1702,0.1771,0.1795,0.1835,0.1846,0.1848,0.1917,0.191,0.1893,0.1866,0.1921,0.1943,0.1954,0.1807,0.1806,0.1805,0.1804,0,0,0.1357,0.1427,0.1436,0.1461,0.1531,0.155,0.1615,0.1673,0.1717,0.1773,0.1827,0.1881,0.1907,0.192,0.1933,0.1971,0.2051,0.1967,0.1968,0.1992,0.2139,0.2005,0.2004,0.2053,0.2055,0.2057,0.213,0,0.1364,0.1413,0.1451,0.1499,0.1527,0.1588,0.1634,0.1695,0.1756,0.1818,0.1867,0.1925,0.193,0.1964,0.2005,0.2045,0.2084,0.2033,0.2084,0.2085,0.1958,0.2014,0.2064,0.2138,0.2141,0.2143,0.2144,0,0.1355,0.1396,0.1446,0.1509,0.1527,0.1569,0.1657,0.1704,0.18,0.1851,0.1927,0.1968,0.2054,0.204,0.2142,0.2114,0.214,0.2158,0.2161,0.2026,0.1972,0.2073,0.2164,0.2162,0.2161,0.216,0.2158,0,0.13,0.1381,0.1422,0.1448,0.153,0.1575,0.1628,0.1722,0.1766,0.1891,0.1936,0.2035,0.2091,0.2152,0.2212,0.2191,0.2306,0.227,0.217,0.2161,0.2235,0.2225,0.2336,0.2336,0.2336,0.2336,0.2336,0,0.1264,0.1293,0.141,0.1425,0.1476,0.1552,0.1613,0.1686,0.1791,0.1838,0.1954,0.2005,0.2127,0.22,0.224,0.2245,0.2333,0.219,0.2175,0.2255,0.2246,0.2243,0.2231,0.2338,0.2338,0.2337,0.2337,0,0.1164,0.1245,0.1288,0.1402,0.1443,0.1477,0.1589,0.1627,0.175,0.1823,0.1869,0.201,0.211,0.2206,0.2309,0.2259,0.229,0.2267,0.2363,0.235,0.211,0.2101,0.2151,0.2147,0.2143,0.2141,0.2138,0,0.1104,0.1127,0.1251,0.1277,0.1332,0.1408,0.145,0.159,0.164,0.1803,0.1825,0.1968,0.2049,0.2091,0.2202,0.2268,0.2244,0.2237,0.2158,0.2114,0.2095,0.209,0.2085,0.2133,0.2132,0.2131,0.213,0,0.0991,0.1055,0.1098,0.1165,0.1224,0.1263,0.1355,0.1384,0.1537,0.1671,0.1748,0.1815,0.1914,0.2007,0.2079,0.2118,0.2229,0.22,0.2206,0.2132,0.2092,0.2075,0.2075,0.2118,0.212,0.2121,0.2122,0,0.0907,0.0918,0.0994,0.1039,0.1092,0.1103,0.117,0.1252,0.1326,0.1541,0.1565,0.1731,0.1885,0.1929,0.1998,0.203,0.1992,0.1919,0.1939,0.1953,0.1857,0.1776,0.1701,0,0,0,0,0,0.0829,0.0838,0.0862,0.0901,0.0937,0.0977,0.1091,0.1171,0.1349,0.1361,0.1465,0.1561,0.1664,0.1757,0.1754,0.19,0.1989,0.1885,0.191,0.2053,0.2066,0.1973,0,0,0,0,0,0,0.0781,0.08,0.0825,0.077,0.0768,0.08,0.0869,0.0992,0.1025,0.122,0.1296,0.1448,0.1583,0.1647,0.1714,0.1744,0.1724,0.2007,0.2002,0.2045,0.2057,0.2068,0.1977,0,0,0,0,0]},{"header":{"parameterUnit":"m.s-1","parameterCategory":2,"la1":30.2991,"la2":30.254,"lo1":-89.0895,"lo2":-89.0444,"dy":0.0017,"dx":0.0017,"nx":28,"ny":28,"refTime":"2024-02-17T03:00:00:Z","depth":"4","parameterNumber":3,"parameterNumberName":"V-component_of_CURRENTS"},"data":[0,0,0,0,0,0,0,0,0,0,0,0,0,0,0,0,0,0,0,0,0,0,0,0,0,0,0,0,0,0,0,0,0,0,0,0,0,0,0,0,0,0,0,0,0,0,0,0,0,0,0,0,0,0,0,0,0,0,0.0121,0.0121,0,0.0078,0.0078,0.0077,0.0048,0.0048,0.0048,0.0048,0.0002,0.0001,-0.0,0,0,0,0,0,0,0,0,0,0,0,0,0,0.0144,0.0144,0.0121,0.0121,0.012,0.0078,0.0078,0.0077,0.0048,0.0048,0.0048,0.0048,0.0002,0.0001,-0.0001,0,0,0,0,0,0,0,0,0,0,0,0,0,0.012,0.0144,0.0121,0.0102,0.0099,0.0079,0.0078,0.0077,0.0048,0.0048,0.0048,0.0047,0.0003,0.0001,-0.0001,-0.0007,0,0,-0.0006,-0.0006,0,0,0,0,0,0,0,0,0.0121,0.0119,0.0105,0.0103,0.0101,0.0069,0.0069,0.0049,0.0048,0.0066,0.0048,0.0047,0.0025,0.0021,0.0012,-0.001,-0.0011,-0.0006,-0.0007,-0.0008,-0.0008,0,0,0,0,0,0,0,0.0123,0.0121,0.0103,0.0105,0.0102,0.0083,0.008,0.0065,0.0046,0.0065,0.0063,0.006,0.0023,0.0014,0.0011,-0.0012,-0.0006,-0.0007,-0.0008,-0.0009,-0.0031,-0.003,0,0,0,0,0,0,0.0132,0.0122,0.0105,0.0102,0.0112,0.0083,0.0079,0.0079,0.0046,0.0042,0.006,0.0059,0.0017,0.0013,0.0009,0.0012,-0.0008,-0.0009,-0.001,-0.0031,-0.0031,-0.003,0,0,0,0,0,0,0.0133,0.0131,0.0106,0.0112,0.0107,0.0083,0.0082,0.0078,0.0071,0.0043,0.0038,0.0059,0.0017,0.0012,0.0,0.0009,-0.001,-0.0011,-0.0032,-0.0031,-0.0031,0.0009,0,0,0,0,0,0,0.0134,0.0132,0.0136,0.0113,0.0108,0.0101,0.0083,0.0077,0.007,0.0068,0.004,0.0036,0.0016,0.0003,-0.0001,0.0007,-0.0013,-0.0032,-0.0031,-0.0031,0.0007,0.0011,0.0014,0,0,0,0,0,0.0135,0.0141,0.0136,0.0134,0.0113,0.0101,0.0097,0.0078,0.007,0.0071,0.0052,0.0037,0.0005,0.0002,-0.0003,0.0005,-0.0033,-0.0032,-0.0031,0.0006,0.001,0.0014,0,0,0,0,0,0,0.0149,0.0138,0.0132,0.0134,0.0122,0.0097,0.0096,0.0083,0.0068,0.0068,0.0039,0.0034,0.0027,0.0012,0.0009,0.0001,-0.0015,-0.0015,0.0014,0.0018,0.0022,0.0029,-0.0014,0,0,0,0,0,0.0156,0.0161,0.0144,0.0146,0.0142,0.0121,0.0114,0.0103,0.0086,0.0079,0.0059,0.0041,0.0026,0.0019,0.0003,-0.0001,-0.0026,0.0001,0.0005,0.0008,0.0011,-0.0018,-0.0018,-0.0027,-0.0027,-0.0027,0,0,0.0162,0.0157,0.0159,0.015,0.0139,0.0139,0.0116,0.0112,0.0112,0.0077,0.0072,0.0052,0.0028,0.0022,0.0018,0.001,-0.0003,0.0009,0.0012,0.0013,-0.0017,-0.0017,-0.0016,-0.0027,-0.0027,-0.0027,0,0,0.0177,0.0173,0.0182,0.0177,0.0168,0.0155,0.0158,0.0138,0.013,0.0122,0.0099,0.0085,0.0062,0.0047,0.0036,0.0049,0.0016,0.0046,0.007,0.0041,0.0042,0.0042,0.0008,0.0004,0.0049,0.0049,0.0049,0,0.0183,0.0194,0.0181,0.0188,0.019,0.0167,0.0177,0.0164,0.0144,0.014,0.0128,0.0093,0.0074,0.0063,0.0069,0.0057,0.0032,0.0056,0.0046,0.0045,0.0045,0.0009,0.0005,0.0051,0.0051,0.005,0.005,0,0.0201,0.0214,0.0219,0.0223,0.0221,0.0228,0.0213,0.0209,0.0197,0.0182,0.0168,0.0137,0.0116,0.0109,0.0093,0.0083,0.0063,0.0052,0.0035,0.0048,0.001,0.0005,0.0054,0.0053,0.0052,0.0052,0,0,0.0203,0.0229,0.023,0.0252,0.0245,0.025,0.0249,0.0245,0.0253,0.0221,0.0221,0.0191,0.017,0.0156,0.0131,0.0107,0.0081,0.0083,0.008,0.0049,0.001,-0.0005,-0.0013,0.0066,0.0065,0.0065,-0.0016,0,0.0222,0.0258,0.0257,0.0291,0.0312,0.0299,0.0305,0.0297,0.0284,0.0276,0.0233,0.0226,0.0188,0.0185,0.0151,0.0102,0.007,0.0103,0.0003,-0.0,-0.0016,-0.0018,0.0063,-0.002,-0.0021,-0.0022,-0.0023,0,0.0237,0.0265,0.0306,0.0348,0.0355,0.037,0.0385,0.0389,0.0365,0.0354,0.0322,0.0284,0.0243,0.0214,0.0119,0.014,0.008,0.0035,0.0031,-0.0,-0.0025,-0.0035,-0.0032,-0.0031,-0.0031,-0.003,-0.0029,0,0.026,0.03,0.0342,0.0354,0.0388,0.0408,0.0424,0.0417,0.044,0.0409,0.0415,0.0338,0.032,0.0225,0.0123,0.0122,0.0013,-0.0001,-0.0078,-0.008,-0.006,-0.0059,-0.007,-0.007,-0.007,-0.0069,-0.0069,0,0.0287,0.0322,0.0365,0.0392,0.045,0.0455,0.051,0.0507,0.0518,0.0549,0.0468,0.0467,0.0325,0.0241,0.0134,0.001,0.0016,-0.0077,-0.0101,-0.0042,-0.0038,-0.0064,-0.0062,-0.0072,-0.0072,-0.0071,-0.0071,0,0.0313,0.0335,0.0396,0.0448,0.0469,0.0516,0.0589,0.0628,0.0625,0.066,0.0656,0.057,0.0451,0.0295,0.014,0.0043,-0.0083,-0.0128,-0.0058,-0.0077,-0.0164,-0.0159,-0.0225,-0.0227,-0.0228,-0.0229,-0.0229,0,0.0336,0.0369,0.0444,0.0489,0.0522,0.0594,0.0648,0.068,0.0729,0.0726,0.0748,0.0641,0.0559,0.0326,0.0152,-0.0079,-0.0107,-0.0178,-0.0172,-0.0162,-0.0179,-0.0173,-0.0167,-0.0231,-0.0231,-0.0231,-0.0232,0,0.0385,0.0407,0.0456,0.0547,0.0619,0.0705,0.0787,0.0829,0.0862,0.0857,0.0828,0.0689,0.0546,0.0337,0.015,-0.001,-0.0138,-0.019,-0.0189,-0.0183,-0.0169,-0.0184,-0.0177,-0.0235,-0.0235,-0.0234,-0.0234,0,0.0422,0.0463,0.0526,0.0606,0.0696,0.0789,0.0831,0.0888,0.0931,0.092,0.0907,0.0736,0.0635,0.0373,0.0208,0.0033,-0.001,-0.0059,-0.0066,-0.0064,-0.0,0.0042,0.002,0,0,0,0,0,0.0456,0.0501,0.058,0.0672,0.0761,0.082,0.091,0.0944,0.097,0.0962,0.0938,0.08,0.0535,0.0422,0.0246,0.0177,-0.0049,-0.0036,-0.0109,-0.0255,-0.0251,-0.0205,0,0,0,0,0,0,0.0478,0.055,0.0584,0.071,0.0781,0.0895,0.0956,0.0978,0.0977,0.0963,0.0829,0.0755,0.05,0.0635,0.0242,0.0187,0.0117,-0.0162,-0.0166,-0.0257,-0.0253,-0.025,-0.0202,0,0,0,0,0]}]]